Regional Weather Roundup
Issued by NWS

Home | Current Version | Previous Version | Graphics & Text | Print | Product List | Glossary On
Versions: 1 2 3 4 5 6 7 8 9 10 11 12 13 14 15 16 17 18 19 20 21 22 23 24 25 26 27 28 29 30 31 32 33 34 35 36 37 38 39 40 41 42 43 44 45 46 47 48 49 50
000
ASUS43 KFSD 250702
RWRSD

WEATHER ROUNDUP FOR SOUTH DAKOTA
NATIONAL WEATHER SERVICE SIOUX FALLS SD
200 AM CDT MON JUL 25 2016

NOTE: "FAIR" INDICATES FEW OR NO CLOUDS BELOW 12,000 FEET WITH NO
SIGNIFICANT WEATHER AND/OR OBSTRUCTIONS TO VISIBILITY.


SDZ001>005-009-010-012>017-250800-
NORTHWEST AND NORTH CENTRAL SOUTH DAKOTA

CITY           SKY/WX    TMP DP  RH WIND       PRES   REMARKS
BUFFALO          N/A     71  49  45 SE18      29.98F
FAITH            N/A     64  45  49 S14       30.07F
MOBRIDGE       CLEAR     67  59  75 SE7       30.03F
$$

SDZ012>016-024>037-041>051-057-063-072>074-250800-
SOUTHWEST AND SOUTH CENTRAL SOUTH DAKOTA

CITY           SKY/WX    TMP DP  RH WIND       PRES   REMARKS
RAPID CTY ARPT CLEAR     67  51  56 S9        30.12S
PIERRE         CLEAR     65  51  60 SE7       30.06S
CUSTER         CLEAR     63  48  58 CALM      30.27S
ELLSWORTH AFB  CLEAR     71  51  49 S13       30.09F
PHILIP         CLEAR     66  54  65 E8        30.08S
PINE RIDGE     CLEAR     72  55  55 S14G22    30.14S
WINNER         FAIR      71  55  56 S8        30.11S
$$

SDZ004>011-016>023-039-040-250800-
NORTHEAST SOUTH DAKOTA

CITY           SKY/WX    TMP DP  RH WIND       PRES   REMARKS
ABERDEEN       CLEAR     60  57  89 S3        30.05S
WATERTOWN      CLEAR     66  60  81 CALM      30.08S
BROOKINGS      CLEAR     64  61  90 CALM        N/A
$$

SDZ017-020-022-023-036>040-048>070-250800-
SOUTHEAST SOUTH DAKOTA

CITY           SKY/WX    TMP DP  RH WIND       PRES   REMARKS
SIOUX FALLS    CLEAR     65  59  81 W3        30.08F
HURON          CLEAR     66  57  72 CALM      30.06F
CHAMBERLAIN    CLEAR     62  58  86 CALM      30.09F
MITCHELL       CLEAR     68  61  78 SW6       30.09S
YANKTON        CLEAR     64  59  82 CALM      30.07F
$$

ABBREVIATIONS USED IN REMARKS
   TC - TEMPERATURE IN CELSIUS
  WCI - WIND CHILL INDEX
   HX - HEAT INDEX
  VSB - VISIBILITY





USA.gov is the U.S. government's official web portal to all federal, state and local government web resources and services.